Volver al catálogo

COSMOS 2251 DEB

ActivoLEO
NORAD 34924·DEBRIS·🇷🇺 Russia

Lanzado Jun 16, 1993 desde Plesetsk Cosmodrome

Loading…

Próximos Pases (próximas 24 horas)

TLE

ActualizadoSource: Space-Track

Época: Sep 14, 2026, 11:04 UTC

1 34924U 93036ADV 26257.46170319  .00002023  00000-0  40193-3 0  9993
2 34924  74.0369 282.4732 0056421 295.1567 133.2077 14.61858671917506

Sigue COSMOS 2251 DEB en tiempo real con AllMySat

Download on the App Store